星链-32673 (STARLINK-32673)

导读

STARLINK-32673是美国太空探索技术公司(SpaceX)星链互联网星座中的一颗卫星,于2025年2月11日发射入轨。作为星链计划的组成部分,它旨在为全球尤其是偏远地区提供高速低延迟的宽带互联网服务,进一步扩充星链星座的网络覆盖容量与服务稳定性,推动全球互联网络基础设施建设。

Basic Information
目录编号:
63000
目录名称:
STARLINK-32673
国际标识:
2025-031V
轨道中心:
EARTH
卫星名称:
星链-32673
卫星全名:
星链-32673 (STARLINK-32673)
卫星状态:
在轨 (已飞行488 天)
发射日期:
2025-02-11 UTC
国别 :
美国 (US)
星等 :
--
Orbit Information
数据来源 国际轨道数据 AOE轨道数据
星历时间 2026-06-14T01:44:33+0800
17小时前
查看轨道信息
2026-06-10T03:00:00+0800
4天前
查看轨道信息
半长轴 6861.141km 6861.188km
偏心率 0.0000087 0.0002197
轨道倾角 43.004° 42.997°
近地点辐角 110.458° 260.862°
升交点赤经 320.994° 343.291°
平近点角 249.628° 324.829°
近地点 482.944km 481.543km
远地点 483.064km 484.559km
周期 94.266分钟 94.267分钟
每日圈数 15.275952 15.275794
Detailed Information
固有亮度:
5
最大亮度:
2.5
卫星平台:
Starlink V1.0
覆盖范围:
全球
运营商:
太空探索技术公司
运营商所在国:
美国
制造商(研发单位):
太空探索技术公司
制造商所在国:
美国
使用方式:
暂无
Satellite Introduction
Starlink 计划是 SpaceX 推出的全球卫星互联网项目,通过发射低轨道卫星,为全球尤其是偏远地区提供高速、低延迟的互联网服务。自 2019 年起,Starlink 已部署数千颗卫星,旨在缩小全球数字鸿沟,推动互联网普及。该项目还为军事、航空等行业提供通信支持,带来广泛经济效益。
2D Orbit Map
3D Orbit Map
Orbit Altitude Analysis Chart
Orbit Inclination Analysis Chart
Orbit Comprehensive Analysis Chart
View Comprehensive Chart